This is the latest recevied weather packets stored in our database for station/object IU3NMQ-10. If no packets are shown the sender has not sent any weather packets the latest 10 day(s).
| Time | Temp. | Humidity | Pressure | Rain* | Wind** | Luminosity | Snow |
|---|---|---|---|---|---|---|---|
| 1777596044 | 12.78° C | 48% | 1024.4 hPa | - | - | - | - |
| 1777595139 | 12.78° C | 48% | 1024.4 hPa | - | - | - | - |
| 1777594239 | 13.33° C | 48% | 1024.6 hPa | - | - | - | - |
| 1777593342 | 13.33° C | 49% | 1024.6 hPa | - | - | - | - |
| 1777592407 | 13.33° C | 48% | 1024.6 hPa | - | - | - | - |
| 1777591500 | 13.89° C | 46% | 1024.5 hPa | - | - | - | - |
| 1777590593 | 13.89° C | 46% | 1024.5 hPa | - | - | - | - |
| 1777589692 | 14.44° C | 46% | 1024.4 hPa | - | - | - | - |
| 1777588792 | 14.44° C | 46% | 1024.3 hPa | - | - | - | - |
| 1777587892 | 14.44° C | 46% | 1024.2 hPa | - | - | - | - |
| 1777586992 | 14.44° C | 45% | 1024.2 hPa | - | - | - | - |
| 1777586092 | 15° C | 45% | 1023.9 hPa | - | - | - | - |
| 1777585192 | 15.56° C | 43% | 1023.8 hPa | - | - | - | - |
| 1777584292 | 15.56° C | 43% | 1023.6 hPa | - | - | - | - |
| 1777583392 | 15.56° C | 43% | 1023.4 hPa | - | - | - | - |
| 1777582492 | 15.56° C | 44% | 1023.2 hPa | - | - | - | - |
| 1777581591 | 15.56° C | 44% | 1023.1 hPa | - | - | - | - |
| 1777580691 | 15.56° C | 44% | 1022.9 hPa | - | - | - | - |
| 1777579790 | 16.11° C | 43% | 1022.7 hPa | - | - | - | - |
| 1777578890 | 16.11° C | 42% | 1022.4 hPa | - | - | - | - |
| 1777577990 | 16.67° C | 40% | 1022.1 hPa | - | - | - | - |
| 1777577090 | 17.22° C | 40% | 1021.8 hPa | - | - | - | - |
| 1777576190 | 17.22° C | 39% | 1021.6 hPa | - | - | - | - |
| 1777575289 | 17.78° C | 37% | 1021.4 hPa | - | - | - | - |
| 1777574389 | 18.33° C | 36% | 1021.2 hPa | - | - | - | - |
* Rain since midnight (hover to see other rain measurements)
** Current wind speed in m/s (hover to see current wind gust speed)